Preview of NWS' New Version of Forecast
This preview is not operational and should not be used for support decisions.

Regional Weather Roundup (RWR)

Issued by National Weather Service (NWS)

                            
000
ASUS43 KBIS 200610
RWRND 

NORTH DAKOTA REGIONAL WEATHER ROUNDUP
NATIONAL WEATHER SERVICE BISMARCK ND
100 AM CDT THU JUN 20 2019

NOTE: "FAIR" INDICATES FEW OR NO CLOUDS BELOW 12,000 FEET WITH NO
SIGNIFICANT WEATHER AND/OR OBSTRUCTIONS TO VISIBILITY.


NDZ001>003-009>011-017-200700-
NORTHWEST NORTH DAKOTA
  
CITY           SKY/WX    TMP DP  RH WIND       PRES   REMARKS
WILLISTON      CLOUDY    59  53  80 SE10      29.66F                  
6HR MIN TEMP:  59; 6HR MAX TEMP:  67; 6HR PCP: TRACE;                

MINOT          CLOUDY    58  51  78 E8        29.71F                  
MINOT AFB      PTCLDY    51  48  89 SE6       29.70F                  
$$
 
NDZ018>021-031>035-040>046-200700-
SOUTHWEST NORTH DAKOTA
  
CITY           SKY/WX    TMP DP  RH WIND       PRES   REMARKS
BISMARCK       CLOUDY    58  53  84 E9        29.72S                  
6HR MIN TEMP:  58; 6HR MAX TEMP:  59; 6HR PCP: TRACE;                

DICKINSON      CLOUDY    57  54  89 S10       29.68R                  
GARRISON         N/A     56  52  86 SE8       29.70F                  
6HR MIN TEMP:  56; 6HR MAX TEMP:  64;                                

HETTINGER ARPT HVY RAIN  54  52  93 W13G26    29.74R FOG              
$$
 
NDZ004>008-012>016-024-026-027-054-200700-
NORTHEAST NORTH DAKOTA
  
CITY           SKY/WX    TMP DP  RH WIND       PRES   REMARKS
GRAND FORKS    MOCLDY    60  54  80 CALM      29.76S                  
GRND FRKS AFB  CLOUDY    58  57  94 N3        29.77S                  
DEVILS LAKE    CLOUDY    60  51  72 SE7       29.78S                  
$$
 
NDZ022-023-025-028>030-036>039-047>053-200700-
SOUTHEAST NORTH DAKOTA
  
CITY           SKY/WX    TMP DP  RH WIND       PRES   REMARKS
FARGO          LGT RAIN  60  56  86 NE3       29.76F                  
6HR MIN TEMP:  60; 6HR MAX TEMP:  68; 6HR PCP:  0.01;                

JAMESTOWN      LGT RAIN  57  54  89 E8        29.74F                  
$$